Index of /20260506/WXO-DD/model_rdps/10km/06/021
Name Last modified Size Description
Parent Directory -
20260506T06Z_MSC_RDPS_AbsoluteVorticity_IsbL-0250_RLatLon0.09_PT021H.grib2 2026-05-06 08:45 590K
20260506T06Z_MSC_RDPS_AbsoluteVorticity_IsbL-0500_RLatLon0.09_PT021H.grib2 2026-05-06 08:45 551K
20260506T06Z_MSC_RDPS_AbsoluteVorticity_IsbL-0700_RLatLon0.09_PT021H.grib2 2026-05-06 08:45 615K
20260506T06Z_MSC_RDPS_AbsoluteVorticity_IsbL-0850_RLatLon0.09_PT021H.grib2 2026-05-06 08:45 779K
20260506T06Z_MSC_RDPS_AirTemp_AGL-120m_RLatLon0.09_PT021H.grib2 2026-05-06 08:45 367K
20260506T06Z_MSC_RDPS_AirTemp_AGL-2m_RLatLon0.09_PT021H.grib2 2026-05-06 08:45 619K
20260506T06Z_MSC_RDPS_AirTemp_AGL-40m_RLatLon0.09_PT021H.grib2 2026-05-06 08:45 381K
20260506T06Z_MSC_RDPS_AirTemp_AGL-80m_RLatLon0.09_PT021H.grib2 2026-05-06 08:45 371K
20260506T06Z_MSC_RDPS_AirTemp_IsbL-0001_RLatLon0.09_PT021H.grib2 2026-05-06 08:45 298K
20260506T06Z_MSC_RDPS_AirTemp_IsbL-0005_RLatLon0.09_PT021H.grib2 2026-05-06 08:45 283K
20260506T06Z_MSC_RDPS_AirTemp_IsbL-0010_RLatLon0.09_PT021H.grib2 2026-05-06 08:45 383K
20260506T06Z_MSC_RDPS_AirTemp_IsbL-0020_RLatLon0.09_PT021H.grib2 2026-05-06 08:45 314K
20260506T06Z_MSC_RDPS_AirTemp_IsbL-0030_RLatLon0.09_PT021H.grib2 2026-05-06 08:45 330K
20260506T06Z_MSC_RDPS_AirTemp_IsbL-0050_RLatLon0.09_PT021H.grib2 2026-05-06 08:45 307K
20260506T06Z_MSC_RDPS_AirTemp_IsbL-0100_RLatLon0.09_PT021H.grib2 2026-05-06 08:45 417K
20260506T06Z_MSC_RDPS_AirTemp_IsbL-0150_RLatLon0.09_PT021H.grib2 2026-05-06 08:45 404K
20260506T06Z_MSC_RDPS_AirTemp_IsbL-0175_RLatLon0.09_PT021H.grib2 2026-05-06 08:45 398K
20260506T06Z_MSC_RDPS_AirTemp_IsbL-0200_RLatLon0.09_PT021H.grib2 2026-05-06 08:45 407K
20260506T06Z_MSC_RDPS_AirTemp_IsbL-0225_RLatLon0.09_PT021H.grib2 2026-05-06 08:45 409K
20260506T06Z_MSC_RDPS_AirTemp_IsbL-0250_RLatLon0.09_PT021H.grib2 2026-05-06 08:45 415K
20260506T06Z_MSC_RDPS_AirTemp_IsbL-0275_RLatLon0.09_PT021H.grib2 2026-05-06 08:45 395K
20260506T06Z_MSC_RDPS_AirTemp_IsbL-0300_RLatLon0.09_PT021H.grib2 2026-05-06 08:45 403K
20260506T06Z_MSC_RDPS_AirTemp_IsbL-0350_RLatLon0.09_PT021H.grib2 2026-05-06 08:45 419K
20260506T06Z_MSC_RDPS_AirTemp_IsbL-0400_RLatLon0.09_PT021H.grib2 2026-05-06 08:45 422K
20260506T06Z_MSC_RDPS_AirTemp_IsbL-0450_RLatLon0.09_PT021H.grib2 2026-05-06 08:45 431K
20260506T06Z_MSC_RDPS_AirTemp_IsbL-0500_RLatLon0.09_PT021H.grib2 2026-05-06 08:45 440K
20260506T06Z_MSC_RDPS_AirTemp_IsbL-0550_RLatLon0.09_PT021H.grib2 2026-05-06 08:45 421K
20260506T06Z_MSC_RDPS_AirTemp_IsbL-0600_RLatLon0.09_PT021H.grib2 2026-05-06 08:45 437K
20260506T06Z_MSC_RDPS_AirTemp_IsbL-0650_RLatLon0.09_PT021H.grib2 2026-05-06 08:45 454K
20260506T06Z_MSC_RDPS_AirTemp_IsbL-0700_RLatLon0.09_PT021H.grib2 2026-05-06 08:45 479K
20260506T06Z_MSC_RDPS_AirTemp_IsbL-0750_RLatLon0.09_PT021H.grib2 2026-05-06 08:45 515K
20260506T06Z_MSC_RDPS_AirTemp_IsbL-0800_RLatLon0.09_PT021H.grib2 2026-05-06 08:45 449K
20260506T06Z_MSC_RDPS_AirTemp_IsbL-0850_RLatLon0.09_PT021H.grib2 2026-05-06 08:45 494K
20260506T06Z_MSC_RDPS_AirTemp_IsbL-0875_RLatLon0.09_PT021H.grib2 2026-05-06 08:45 511K
20260506T06Z_MSC_RDPS_AirTemp_IsbL-0900_RLatLon0.09_PT021H.grib2 2026-05-06 08:45 519K
20260506T06Z_MSC_RDPS_AirTemp_IsbL-0925_RLatLon0.09_PT021H.grib2 2026-05-06 08:45 519K
20260506T06Z_MSC_RDPS_AirTemp_IsbL-0950_RLatLon0.09_PT021H.grib2 2026-05-06 08:45 515K
20260506T06Z_MSC_RDPS_AirTemp_IsbL-0970_RLatLon0.09_PT021H.grib2 2026-05-06 08:45 510K
20260506T06Z_MSC_RDPS_AirTemp_IsbL-0985_RLatLon0.09_PT021H.grib2 2026-05-06 08:45 498K
20260506T06Z_MSC_RDPS_AirTemp_IsbL-1000_RLatLon0.09_PT021H.grib2 2026-05-06 08:45 479K
20260506T06Z_MSC_RDPS_AirTemp_IsbL-1015_RLatLon0.09_PT021H.grib2 2026-05-06 08:45 480K
20260506T06Z_MSC_RDPS_Albedo_Sfc_RLatLon0.09_PT021H.grib2 2026-05-06 08:45 159K
20260506T06Z_MSC_RDPS_CAPE_Sfc_RLatLon0.09_PT021H.grib2 2026-05-06 08:45 1.7M
20260506T06Z_MSC_RDPS_CIN_Sfc_RLatLon0.09_PT021H.grib2 2026-05-06 08:45 1.2M
20260506T06Z_MSC_RDPS_CloudWater_EAtm_RLatLon0.09_PT021H.grib2 2026-05-06 08:45 221K
20260506T06Z_MSC_RDPS_ConvectivePrecip-Accum_Sfc_RLatLon0.09_PT021H.grib2 2026-05-06 08:45 743K
20260506T06Z_MSC_RDPS_DewPointDepression_AGL-2m_RLatLon0.09_PT021H.grib2 2026-05-06 08:45 401K
20260506T06Z_MSC_RDPS_DewPointDepression_IsbL-0001_RLatLon0.09_PT021H.grib2 2026-05-06 08:45 193
20260506T06Z_MSC_RDPS_DewPointDepression_IsbL-0005_RLatLon0.09_PT021H.grib2 2026-05-06 08:45 193
20260506T06Z_MSC_RDPS_DewPointDepression_IsbL-0010_RLatLon0.09_PT021H.grib2 2026-05-06 08:45 193
20260506T06Z_MSC_RDPS_DewPointDepression_IsbL-0020_RLatLon0.09_PT021H.grib2 2026-05-06 08:45 193
20260506T06Z_MSC_RDPS_DewPointDepression_IsbL-0030_RLatLon0.09_PT021H.grib2 2026-05-06 08:45 193
20260506T06Z_MSC_RDPS_DewPointDepression_IsbL-0050_RLatLon0.09_PT021H.grib2 2026-05-06 08:45 80K
20260506T06Z_MSC_RDPS_DewPointDepression_IsbL-0100_RLatLon0.09_PT021H.grib2 2026-05-06 08:45 112K
20260506T06Z_MSC_RDPS_DewPointDepression_IsbL-0150_RLatLon0.09_PT021H.grib2 2026-05-06 08:45 136K
20260506T06Z_MSC_RDPS_DewPointDepression_IsbL-0175_RLatLon0.09_PT021H.grib2 2026-05-06 08:45 176K
20260506T06Z_MSC_RDPS_DewPointDepression_IsbL-0200_RLatLon0.09_PT021H.grib2 2026-05-06 08:45 215K
20260506T06Z_MSC_RDPS_DewPointDepression_IsbL-0225_RLatLon0.09_PT021H.grib2 2026-05-06 08:45 246K
20260506T06Z_MSC_RDPS_DewPointDepression_IsbL-0250_RLatLon0.09_PT021H.grib2 2026-05-06 08:45 291K
20260506T06Z_MSC_RDPS_DewPointDepression_IsbL-0275_RLatLon0.09_PT021H.grib2 2026-05-06 08:45 305K
20260506T06Z_MSC_RDPS_DewPointDepression_IsbL-0300_RLatLon0.09_PT021H.grib2 2026-05-06 08:45 322K
20260506T06Z_MSC_RDPS_DewPointDepression_IsbL-0350_RLatLon0.09_PT021H.grib2 2026-05-06 08:45 329K
20260506T06Z_MSC_RDPS_DewPointDepression_IsbL-0400_RLatLon0.09_PT021H.grib2 2026-05-06 08:45 340K
20260506T06Z_MSC_RDPS_DewPointDepression_IsbL-0450_RLatLon0.09_PT021H.grib2 2026-05-06 08:45 342K
20260506T06Z_MSC_RDPS_DewPointDepression_IsbL-0500_RLatLon0.09_PT021H.grib2 2026-05-06 08:45 345K
20260506T06Z_MSC_RDPS_DewPointDepression_IsbL-0550_RLatLon0.09_PT021H.grib2 2026-05-06 08:45 356K
20260506T06Z_MSC_RDPS_DewPointDepression_IsbL-0600_RLatLon0.09_PT021H.grib2 2026-05-06 08:45 364K
20260506T06Z_MSC_RDPS_DewPointDepression_IsbL-0650_RLatLon0.09_PT021H.grib2 2026-05-06 08:45 365K
20260506T06Z_MSC_RDPS_DewPointDepression_IsbL-0700_RLatLon0.09_PT021H.grib2 2026-05-06 08:45 375K
20260506T06Z_MSC_RDPS_DewPointDepression_IsbL-0750_RLatLon0.09_PT021H.grib2 2026-05-06 08:45 398K
20260506T06Z_MSC_RDPS_DewPointDepression_IsbL-0800_RLatLon0.09_PT021H.grib2 2026-05-06 08:45 440K
20260506T06Z_MSC_RDPS_DewPointDepression_IsbL-0850_RLatLon0.09_PT021H.grib2 2026-05-06 08:45 471K
20260506T06Z_MSC_RDPS_DewPointDepression_IsbL-0875_RLatLon0.09_PT021H.grib2 2026-05-06 08:45 472K
20260506T06Z_MSC_RDPS_DewPointDepression_IsbL-0900_RLatLon0.09_PT021H.grib2 2026-05-06 08:45 466K
20260506T06Z_MSC_RDPS_DewPointDepression_IsbL-0925_RLatLon0.09_PT021H.grib2 2026-05-06 08:45 456K
20260506T06Z_MSC_RDPS_DewPointDepression_IsbL-0950_RLatLon0.09_PT021H.grib2 2026-05-06 08:45 443K
20260506T06Z_MSC_RDPS_DewPointDepression_IsbL-0970_RLatLon0.09_PT021H.grib2 2026-05-06 08:45 435K
20260506T06Z_MSC_RDPS_DewPointDepression_IsbL-0985_RLatLon0.09_PT021H.grib2 2026-05-06 08:45 432K
20260506T06Z_MSC_RDPS_DewPointDepression_IsbL-1000_RLatLon0.09_PT021H.grib2 2026-05-06 08:45 426K
20260506T06Z_MSC_RDPS_DewPointDepression_IsbL-1015_RLatLon0.09_PT021H.grib2 2026-05-06 08:45 415K
20260506T06Z_MSC_RDPS_DewPoint_AGL-2m_RLatLon0.09_PT021H.grib2 2026-05-06 08:45 305K
20260506T06Z_MSC_RDPS_DownwardLongwaveRadiationFlux-Accum_Sfc_RLatLon0.09_PT021H.grib2 2026-05-06 08:45 420K
20260506T06Z_MSC_RDPS_DownwardShortwaveRadiationFlux-Accum_NTAtm_RLatLon0.09_PT021H.grib2 2026-05-06 08:45 127K
20260506T06Z_MSC_RDPS_DownwardShortwaveRadiationFlux-Accum_Sfc_RLatLon0.09_PT021H.grib2 2026-05-06 08:45 634K
20260506T06Z_MSC_RDPS_FreezingRain-Accum1h_Sfc_RLatLon0.09_PT021H.grib2 2026-05-06 08:45 28K
20260506T06Z_MSC_RDPS_FreezingRain-Accum3h_Sfc_RLatLon0.09_PT021H.grib2 2026-05-06 08:45 33K
20260506T06Z_MSC_RDPS_FreezingRain-Accum_Sfc_RLatLon0.09_PT021H.grib2 2026-05-06 08:45 104K
20260506T06Z_MSC_RDPS_GeopotentialHeight_IsbL-0001_RLatLon0.09_PT021H.grib2 2026-05-06 08:45 306K
20260506T06Z_MSC_RDPS_GeopotentialHeight_IsbL-0005_RLatLon0.09_PT021H.grib2 2026-05-06 08:45 332K
20260506T06Z_MSC_RDPS_GeopotentialHeight_IsbL-0010_RLatLon0.09_PT021H.grib2 2026-05-06 08:45 333K
20260506T06Z_MSC_RDPS_GeopotentialHeight_IsbL-0020_RLatLon0.09_PT021H.grib2 2026-05-06 08:45 299K
20260506T06Z_MSC_RDPS_GeopotentialHeight_IsbL-0030_RLatLon0.09_PT021H.grib2 2026-05-06 08:45 301K
20260506T06Z_MSC_RDPS_GeopotentialHeight_IsbL-0050_RLatLon0.09_PT021H.grib2 2026-05-06 08:45 302K
20260506T06Z_MSC_RDPS_GeopotentialHeight_IsbL-0100_RLatLon0.09_PT021H.grib2 2026-05-06 08:45 282K
20260506T06Z_MSC_RDPS_GeopotentialHeight_IsbL-0150_RLatLon0.09_PT021H.grib2 2026-05-06 08:45 226K
20260506T06Z_MSC_RDPS_GeopotentialHeight_IsbL-0175_RLatLon0.09_PT021H.grib2 2026-05-06 08:45 228K
20260506T06Z_MSC_RDPS_GeopotentialHeight_IsbL-0200_RLatLon0.09_PT021H.grib2 2026-05-06 08:45 231K
20260506T06Z_MSC_RDPS_GeopotentialHeight_IsbL-0225_RLatLon0.09_PT021H.grib2 2026-05-06 08:45 264K
20260506T06Z_MSC_RDPS_GeopotentialHeight_IsbL-0250_RLatLon0.09_PT021H.grib2 2026-05-06 08:45 265K
20260506T06Z_MSC_RDPS_GeopotentialHeight_IsbL-0275_RLatLon0.09_PT021H.grib2 2026-05-06 08:45 233K
20260506T06Z_MSC_RDPS_GeopotentialHeight_IsbL-0300_RLatLon0.09_PT021H.grib2 2026-05-06 08:45 234K
20260506T06Z_MSC_RDPS_GeopotentialHeight_IsbL-0350_RLatLon0.09_PT021H.grib2 2026-05-06 08:45 230K
20260506T06Z_MSC_RDPS_GeopotentialHeight_IsbL-0400_RLatLon0.09_PT021H.grib2 2026-05-06 08:45 227K
20260506T06Z_MSC_RDPS_GeopotentialHeight_IsbL-0450_RLatLon0.09_PT021H.grib2 2026-05-06 08:45 294K
20260506T06Z_MSC_RDPS_GeopotentialHeight_IsbL-0500_RLatLon0.09_PT021H.grib2 2026-05-06 08:45 289K
20260506T06Z_MSC_RDPS_GeopotentialHeight_IsbL-0550_RLatLon0.09_PT021H.grib2 2026-05-06 08:45 285K
20260506T06Z_MSC_RDPS_GeopotentialHeight_IsbL-0600_RLatLon0.09_PT021H.grib2 2026-05-06 08:45 283K
20260506T06Z_MSC_RDPS_GeopotentialHeight_IsbL-0650_RLatLon0.09_PT021H.grib2 2026-05-06 08:45 253K
20260506T06Z_MSC_RDPS_GeopotentialHeight_IsbL-0700_RLatLon0.09_PT021H.grib2 2026-05-06 08:45 252K
20260506T06Z_MSC_RDPS_GeopotentialHeight_IsbL-0750_RLatLon0.09_PT021H.grib2 2026-05-06 08:45 336K
20260506T06Z_MSC_RDPS_GeopotentialHeight_IsbL-0800_RLatLon0.09_PT021H.grib2 2026-05-06 08:45 343K
20260506T06Z_MSC_RDPS_GeopotentialHeight_IsbL-0850_RLatLon0.09_PT021H.grib2 2026-05-06 08:45 384K
20260506T06Z_MSC_RDPS_GeopotentialHeight_IsbL-0875_RLatLon0.09_PT021H.grib2 2026-05-06 08:45 386K
20260506T06Z_MSC_RDPS_GeopotentialHeight_IsbL-0900_RLatLon0.09_PT021H.grib2 2026-05-06 08:45 390K
20260506T06Z_MSC_RDPS_GeopotentialHeight_IsbL-0925_RLatLon0.09_PT021H.grib2 2026-05-06 08:45 360K
20260506T06Z_MSC_RDPS_GeopotentialHeight_IsbL-0950_RLatLon0.09_PT021H.grib2 2026-05-06 08:45 363K
20260506T06Z_MSC_RDPS_GeopotentialHeight_IsbL-0970_RLatLon0.09_PT021H.grib2 2026-05-06 08:45 365K
20260506T06Z_MSC_RDPS_GeopotentialHeight_IsbL-0985_RLatLon0.09_PT021H.grib2 2026-05-06 08:45 375K
20260506T06Z_MSC_RDPS_GeopotentialHeight_IsbL-1000_RLatLon0.09_PT021H.grib2 2026-05-06 08:45 386K
20260506T06Z_MSC_RDPS_GeopotentialHeight_IsbL-1015_RLatLon0.09_PT021H.grib2 2026-05-06 08:45 399K
20260506T06Z_MSC_RDPS_HighLowPressure_MSL_RLatLon0.09_PT021H.json 2026-05-06 08:37 19K
20260506T06Z_MSC_RDPS_Humidex_Sfc_RLatLon0.09_PT021H.grib2 2026-05-06 08:45 2.4M
20260506T06Z_MSC_RDPS_IcePellets-Accum1h_Sfc_RLatLon0.09_PT021H.grib2 2026-05-06 08:45 3.7K
20260506T06Z_MSC_RDPS_IcePellets-Accum3h_Sfc_RLatLon0.09_PT021H.grib2 2026-05-06 08:45 5.3K
20260506T06Z_MSC_RDPS_IcePellets-Accum_Sfc_RLatLon0.09_PT021H.grib2 2026-05-06 08:45 15K
20260506T06Z_MSC_RDPS_KIndex_Sfc_RLatLon0.09_PT021H.grib2 2026-05-06 08:45 2.5M
20260506T06Z_MSC_RDPS_LatentHeatNetFlux_Sfc_RLatLon0.09_PT021H.grib2 2026-05-06 08:45 319K
20260506T06Z_MSC_RDPS_LiftedIndex-MU-VT_IsbL-0500_RLatLon0.09_PT021H.grib2 2026-05-06 08:45 2.4M
20260506T06Z_MSC_RDPS_NetLongwaveRadiationFlux-Accum_Sfc_RLatLon0.09_PT021H.grib2 2026-05-06 08:45 560K
20260506T06Z_MSC_RDPS_NetShortwaveRadiationFlux-Accum_Sfc_RLatLon0.09_PT021H.grib2 2026-05-06 08:45 628K
20260506T06Z_MSC_RDPS_PlanetaryBoundaryLayerHeight_Sfc_RLatLon0.09_PT021H.grib2 2026-05-06 08:45 1.1M
20260506T06Z_MSC_RDPS_Precip-Accum1h_Sfc_RLatLon0.09_PT021H.grib2 2026-05-06 08:45 1.3M
20260506T06Z_MSC_RDPS_Precip-Accum3h_Sfc_RLatLon0.09_PT021H.grib2 2026-05-06 08:45 1.4M
20260506T06Z_MSC_RDPS_Precip-Accum_Sfc_RLatLon0.09_PT021H.grib2 2026-05-06 08:45 1.9M
20260506T06Z_MSC_RDPS_PrecipRate_Sfc_RLatLon0.09_PT021H.grib2 2026-05-06 08:45 183K
20260506T06Z_MSC_RDPS_PrecipType-Instant_Sfc_RLatLon0.09_PT021H.grib2 2026-05-06 08:45 557K
20260506T06Z_MSC_RDPS_Pressure-Trend3h_Sfc_RLatLon0.09_PT021H.grib2 2026-05-06 08:45 1.2M
20260506T06Z_MSC_RDPS_Pressure_MSL_RLatLon0.09_PT021H.grib2 2026-05-06 08:45 288K
20260506T06Z_MSC_RDPS_Pressure_PVU-1.5_RLatLon0.09_PT021H.grib2 2026-05-06 08:45 2.5M
20260506T06Z_MSC_RDPS_Pressure_PVU-1_RLatLon0.09_PT021H.grib2 2026-05-06 08:45 2.4M
20260506T06Z_MSC_RDPS_Pressure_PVU-2_RLatLon0.09_PT021H.grib2 2026-05-06 08:45 2.4M
20260506T06Z_MSC_RDPS_Pressure_Sfc_RLatLon0.09_PT021H.grib2 2026-05-06 08:45 497K
20260506T06Z_MSC_RDPS_RadiativeTemp_Sfc_RLatLon0.09_PT021H.grib2 2026-05-06 08:45 300K
20260506T06Z_MSC_RDPS_Rain-Accum1h_Sfc_RLatLon0.09_PT021H.grib2 2026-05-06 08:45 629K
20260506T06Z_MSC_RDPS_Rain-Accum3h_Sfc_RLatLon0.09_PT021H.grib2 2026-05-06 08:45 719K
20260506T06Z_MSC_RDPS_Rain-Accum_Sfc_RLatLon0.09_PT021H.grib2 2026-05-06 08:45 1.5M
20260506T06Z_MSC_RDPS_RelativeHumidity_AGL-2m_RLatLon0.09_PT021H.grib2 2026-05-06 08:45 1.0M
20260506T06Z_MSC_RDPS_RelativeHumidity_IsbL-0010_RLatLon0.09_PT021H.grib2 2026-05-06 08:45 591K
20260506T06Z_MSC_RDPS_RelativeHumidity_IsbL-0020_RLatLon0.09_PT021H.grib2 2026-05-06 08:45 678K
20260506T06Z_MSC_RDPS_RelativeHumidity_IsbL-0030_RLatLon0.09_PT021H.grib2 2026-05-06 08:45 598K
20260506T06Z_MSC_RDPS_RelativeHumidity_IsbL-0050_RLatLon0.09_PT021H.grib2 2026-05-06 08:45 352K
20260506T06Z_MSC_RDPS_RelativeHumidity_IsbL-0100_RLatLon0.09_PT021H.grib2 2026-05-06 08:45 271K
20260506T06Z_MSC_RDPS_RelativeHumidity_IsbL-0150_RLatLon0.09_PT021H.grib2 2026-05-06 08:45 407K
20260506T06Z_MSC_RDPS_RelativeHumidity_IsbL-0175_RLatLon0.09_PT021H.grib2 2026-05-06 08:45 463K
20260506T06Z_MSC_RDPS_RelativeHumidity_IsbL-0200_RLatLon0.09_PT021H.grib2 2026-05-06 08:45 535K
20260506T06Z_MSC_RDPS_RelativeHumidity_IsbL-0225_RLatLon0.09_PT021H.grib2 2026-05-06 08:45 599K
20260506T06Z_MSC_RDPS_RelativeHumidity_IsbL-0250_RLatLon0.09_PT021H.grib2 2026-05-06 08:45 662K
20260506T06Z_MSC_RDPS_RelativeHumidity_IsbL-0275_RLatLon0.09_PT021H.grib2 2026-05-06 08:45 692K
20260506T06Z_MSC_RDPS_RelativeHumidity_IsbL-0300_RLatLon0.09_PT021H.grib2 2026-05-06 08:45 738K
20260506T06Z_MSC_RDPS_RelativeHumidity_IsbL-0350_RLatLon0.09_PT021H.grib2 2026-05-06 08:45 760K
20260506T06Z_MSC_RDPS_RelativeHumidity_IsbL-0400_RLatLon0.09_PT021H.grib2 2026-05-06 08:45 780K
20260506T06Z_MSC_RDPS_RelativeHumidity_IsbL-0450_RLatLon0.09_PT021H.grib2 2026-05-06 08:45 786K
20260506T06Z_MSC_RDPS_RelativeHumidity_IsbL-0500_RLatLon0.09_PT021H.grib2 2026-05-06 08:45 788K
20260506T06Z_MSC_RDPS_RelativeHumidity_IsbL-0550_RLatLon0.09_PT021H.grib2 2026-05-06 08:45 807K
20260506T06Z_MSC_RDPS_RelativeHumidity_IsbL-0600_RLatLon0.09_PT021H.grib2 2026-05-06 08:45 826K
20260506T06Z_MSC_RDPS_RelativeHumidity_IsbL-0650_RLatLon0.09_PT021H.grib2 2026-05-06 08:45 845K
20260506T06Z_MSC_RDPS_RelativeHumidity_IsbL-0700_RLatLon0.09_PT021H.grib2 2026-05-06 08:45 860K
20260506T06Z_MSC_RDPS_RelativeHumidity_IsbL-0750_RLatLon0.09_PT021H.grib2 2026-05-06 08:45 912K
20260506T06Z_MSC_RDPS_RelativeHumidity_IsbL-0800_RLatLon0.09_PT021H.grib2 2026-05-06 08:45 1.0M
20260506T06Z_MSC_RDPS_RelativeHumidity_IsbL-0850_RLatLon0.09_PT021H.grib2 2026-05-06 08:45 1.0M
20260506T06Z_MSC_RDPS_RelativeHumidity_IsbL-0875_RLatLon0.09_PT021H.grib2 2026-05-06 08:45 1.1M
20260506T06Z_MSC_RDPS_RelativeHumidity_IsbL-0900_RLatLon0.09_PT021H.grib2 2026-05-06 08:45 1.1M
20260506T06Z_MSC_RDPS_RelativeHumidity_IsbL-0925_RLatLon0.09_PT021H.grib2 2026-05-06 08:45 1.1M
20260506T06Z_MSC_RDPS_RelativeHumidity_IsbL-0950_RLatLon0.09_PT021H.grib2 2026-05-06 08:45 1.1M
20260506T06Z_MSC_RDPS_RelativeHumidity_IsbL-0970_RLatLon0.09_PT021H.grib2 2026-05-06 08:45 1.0M
20260506T06Z_MSC_RDPS_RelativeHumidity_IsbL-0985_RLatLon0.09_PT021H.grib2 2026-05-06 08:45 1.0M
20260506T06Z_MSC_RDPS_RelativeHumidity_IsbL-1000_RLatLon0.09_PT021H.grib2 2026-05-06 08:45 1.0M
20260506T06Z_MSC_RDPS_RelativeHumidity_IsbL-1015_RLatLon0.09_PT021H.grib2 2026-05-06 08:45 1.0M
20260506T06Z_MSC_RDPS_Runoff-Accum_Sfc_RLatLon0.09_PT021H.grib2 2026-05-06 08:45 51K
20260506T06Z_MSC_RDPS_SWEATIndex_Sfc_RLatLon0.09_PT021H.grib2 2026-05-06 08:45 2.4M
20260506T06Z_MSC_RDPS_SeeingIndex_EAtm_RLatLon0.09_PT021H.grib2 2026-05-06 08:45 1.0M
20260506T06Z_MSC_RDPS_SensibleHeatNetFlux_Sfc_RLatLon0.09_PT021H.grib2 2026-05-06 08:45 209K
20260506T06Z_MSC_RDPS_ShowalterIndex_IsbL-0500_RLatLon0.09_PT021H.grib2 2026-05-06 08:45 2.6M
20260506T06Z_MSC_RDPS_SkyTransparencyIndex_EAtm_RLatLon0.09_PT021H.grib2 2026-05-06 08:45 719K
20260506T06Z_MSC_RDPS_Snow-Accum1h_Sfc_RLatLon0.09_PT021H.grib2 2026-05-06 08:45 440K
20260506T06Z_MSC_RDPS_Snow-Accum3h_Sfc_RLatLon0.09_PT021H.grib2 2026-05-06 08:45 442K
20260506T06Z_MSC_RDPS_Snow-Accum_Sfc_RLatLon0.09_PT021H.grib2 2026-05-06 08:45 670K
20260506T06Z_MSC_RDPS_SnowDensity_Sfc_RLatLon0.09_PT021H.grib2 2026-05-06 08:45 172K
20260506T06Z_MSC_RDPS_SnowDepth_Sfc_RLatLon0.09_PT021H.grib2 2026-05-06 08:45 645K
20260506T06Z_MSC_RDPS_SoilTemp_DBS-0to10cm_RLatLon0.09_PT021H.grib2 2026-05-06 08:45 224K
20260506T06Z_MSC_RDPS_SoilTemp_Sfc_RLatLon0.09_PT021H.grib2 2026-05-06 08:45 259K
20260506T06Z_MSC_RDPS_SoilVolumetricIceContent_Sfc_RLatLon0.09_PT021H.grib2 2026-05-06 08:45 149K
20260506T06Z_MSC_RDPS_SoilVolumetricWaterContent_DBS-0to10cm_RLatLon0.09_PT021H.grib2 2026-05-06 08:45 281K
20260506T06Z_MSC_RDPS_SoilVolumetricWaterContent_DBS-0to1cm_RLatLon0.09_PT021H.grib2 2026-05-06 08:45 338K
20260506T06Z_MSC_RDPS_SpecificHumidity_AGL-120m_RLatLon0.09_PT021H.grib2 2026-05-06 08:45 487K
20260506T06Z_MSC_RDPS_SpecificHumidity_AGL-2m_RLatLon0.09_PT021H.grib2 2026-05-06 08:45 654K
20260506T06Z_MSC_RDPS_SpecificHumidity_AGL-40m_RLatLon0.09_PT021H.grib2 2026-05-06 08:45 494K
20260506T06Z_MSC_RDPS_SpecificHumidity_AGL-80m_RLatLon0.09_PT021H.grib2 2026-05-06 08:45 488K
20260506T06Z_MSC_RDPS_SpecificHumidity_IsbL-0001_RLatLon0.09_PT021H.grib2 2026-05-06 08:45 305K
20260506T06Z_MSC_RDPS_SpecificHumidity_IsbL-0005_RLatLon0.09_PT021H.grib2 2026-05-06 08:45 376K
20260506T06Z_MSC_RDPS_SpecificHumidity_IsbL-0010_RLatLon0.09_PT021H.grib2 2026-05-06 08:45 409K
20260506T06Z_MSC_RDPS_SpecificHumidity_IsbL-0020_RLatLon0.09_PT021H.grib2 2026-05-06 08:45 386K
20260506T06Z_MSC_RDPS_SpecificHumidity_IsbL-0030_RLatLon0.09_PT021H.grib2 2026-05-06 08:45 372K
20260506T06Z_MSC_RDPS_SpecificHumidity_IsbL-0050_RLatLon0.09_PT021H.grib2 2026-05-06 08:45 481K
20260506T06Z_MSC_RDPS_SpecificHumidity_IsbL-0100_RLatLon0.09_PT021H.grib2 2026-05-06 08:45 442K
20260506T06Z_MSC_RDPS_SpecificHumidity_IsbL-0150_RLatLon0.09_PT021H.grib2 2026-05-06 08:45 452K
20260506T06Z_MSC_RDPS_SpecificHumidity_IsbL-0175_RLatLon0.09_PT021H.grib2 2026-05-06 08:45 436K
20260506T06Z_MSC_RDPS_SpecificHumidity_IsbL-0200_RLatLon0.09_PT021H.grib2 2026-05-06 08:45 445K
20260506T06Z_MSC_RDPS_SpecificHumidity_IsbL-0225_RLatLon0.09_PT021H.grib2 2026-05-06 08:45 443K
20260506T06Z_MSC_RDPS_SpecificHumidity_IsbL-0250_RLatLon0.09_PT021H.grib2 2026-05-06 08:45 545K
20260506T06Z_MSC_RDPS_SpecificHumidity_IsbL-0275_RLatLon0.09_PT021H.grib2 2026-05-06 08:45 465K
20260506T06Z_MSC_RDPS_SpecificHumidity_IsbL-0300_RLatLon0.09_PT021H.grib2 2026-05-06 08:45 537K
20260506T06Z_MSC_RDPS_SpecificHumidity_IsbL-0350_RLatLon0.09_PT021H.grib2 2026-05-06 08:45 531K
20260506T06Z_MSC_RDPS_SpecificHumidity_IsbL-0400_RLatLon0.09_PT021H.grib2 2026-05-06 08:45 518K
20260506T06Z_MSC_RDPS_SpecificHumidity_IsbL-0450_RLatLon0.09_PT021H.grib2 2026-05-06 08:45 568K
20260506T06Z_MSC_RDPS_SpecificHumidity_IsbL-0500_RLatLon0.09_PT021H.grib2 2026-05-06 08:45 500K
20260506T06Z_MSC_RDPS_SpecificHumidity_IsbL-0550_RLatLon0.09_PT021H.grib2 2026-05-06 08:45 558K
20260506T06Z_MSC_RDPS_SpecificHumidity_IsbL-0600_RLatLon0.09_PT021H.grib2 2026-05-06 08:45 626K
20260506T06Z_MSC_RDPS_SpecificHumidity_IsbL-0650_RLatLon0.09_PT021H.grib2 2026-05-06 08:45 540K
20260506T06Z_MSC_RDPS_SpecificHumidity_IsbL-0700_RLatLon0.09_PT021H.grib2 2026-05-06 08:45 582K
20260506T06Z_MSC_RDPS_SpecificHumidity_IsbL-0750_RLatLon0.09_PT021H.grib2 2026-05-06 08:45 639K
20260506T06Z_MSC_RDPS_SpecificHumidity_IsbL-0800_RLatLon0.09_PT021H.grib2 2026-05-06 08:45 727K
20260506T06Z_MSC_RDPS_SpecificHumidity_IsbL-0850_RLatLon0.09_PT021H.grib2 2026-05-06 08:45 802K
20260506T06Z_MSC_RDPS_SpecificHumidity_IsbL-0875_RLatLon0.09_PT021H.grib2 2026-05-06 08:45 829K
20260506T06Z_MSC_RDPS_SpecificHumidity_IsbL-0900_RLatLon0.09_PT021H.grib2 2026-05-06 08:45 844K
20260506T06Z_MSC_RDPS_SpecificHumidity_IsbL-0925_RLatLon0.09_PT021H.grib2 2026-05-06 08:45 849K
20260506T06Z_MSC_RDPS_SpecificHumidity_IsbL-0950_RLatLon0.09_PT021H.grib2 2026-05-06 08:45 846K
20260506T06Z_MSC_RDPS_SpecificHumidity_IsbL-0970_RLatLon0.09_PT021H.grib2 2026-05-06 08:45 695K
20260506T06Z_MSC_RDPS_SpecificHumidity_IsbL-0985_RLatLon0.09_PT021H.grib2 2026-05-06 08:45 687K
20260506T06Z_MSC_RDPS_SpecificHumidity_IsbL-1000_RLatLon0.09_PT021H.grib2 2026-05-06 08:45 680K
20260506T06Z_MSC_RDPS_SpecificHumidity_IsbL-1015_RLatLon0.09_PT021H.grib2 2026-05-06 08:45 668K
20260506T06Z_MSC_RDPS_SpecificHumidity_Sfc_RLatLon0.09_PT021H.grib2 2026-05-06 08:45 316K
20260506T06Z_MSC_RDPS_StormRelativeHelicity_EtaL-10000_RLatLon0.09_PT021H.grib2 2026-05-06 08:45 1.1M
20260506T06Z_MSC_RDPS_StormSeverityIndex_EtaL-10000_RLatLon0.09_PT021H.grib2 2026-05-06 08:45 1.2M
20260506T06Z_MSC_RDPS_Thickness_IsbL-0850to0700_RLatLon0.09_PT021H.grib2 2026-05-06 08:45 172K
20260506T06Z_MSC_RDPS_Thickness_IsbL-1000to0500_RLatLon0.09_PT021H.grib2 2026-05-06 08:45 191K
20260506T06Z_MSC_RDPS_Thickness_IsbL-1000to0850_RLatLon0.09_PT021H.grib2 2026-05-06 08:45 255K
20260506T06Z_MSC_RDPS_TotalCloudCover_Sfc_RLatLon0.09_PT021H.grib2 2026-05-06 08:45 656K
20260506T06Z_MSC_RDPS_TotalTotalsIndex_Sfc_RLatLon0.09_PT021H.grib2 2026-05-06 08:45 2.4M
20260506T06Z_MSC_RDPS_UVIndex-ClearSky_Sfc_RLatLon0.09_PT021H.grib2 2026-05-06 08:45 101K
20260506T06Z_MSC_RDPS_UVIndex_Sfc_RLatLon0.09_PT021H.grib2 2026-05-06 08:45 201K
20260506T06Z_MSC_RDPS_UpwardLongwaveRadiationFlux_NTAtm_RLatLon0.09_PT021H.grib2 2026-05-06 08:45 479K
20260506T06Z_MSC_RDPS_UpwardShortwaveRadiationFlux_NTAtm_RLatLon0.09_PT021H.grib2 2026-05-06 08:45 197K
20260506T06Z_MSC_RDPS_VerticalVelocity_IsbL-0250_RLatLon0.09_PT021H.grib2 2026-05-06 08:45 570K
20260506T06Z_MSC_RDPS_VerticalVelocity_IsbL-0500_RLatLon0.09_PT021H.grib2 2026-05-06 08:45 670K
20260506T06Z_MSC_RDPS_VerticalVelocity_IsbL-0700_RLatLon0.09_PT021H.grib2 2026-05-06 08:45 586K
20260506T06Z_MSC_RDPS_VerticalVelocity_IsbL-0850_RLatLon0.09_PT021H.grib2 2026-05-06 08:45 830K
20260506T06Z_MSC_RDPS_VerticalWindShear_EtaL-6500_RLatLon0.09_PT021H.grib2 2026-05-06 08:45 1.2M
20260506T06Z_MSC_RDPS_WindChill_Sfc_RLatLon0.09_PT021H.grib2 2026-05-06 08:45 1.1M
20260506T06Z_MSC_RDPS_WindDir_AGL-10m_RLatLon0.09_PT021H.grib2 2026-05-06 08:45 946K
20260506T06Z_MSC_RDPS_WindDir_AGL-120m_RLatLon0.09_PT021H.grib2 2026-05-06 08:45 585K
20260506T06Z_MSC_RDPS_WindDir_AGL-40m_RLatLon0.09_PT021H.grib2 2026-05-06 08:45 617K
20260506T06Z_MSC_RDPS_WindDir_AGL-80m_RLatLon0.09_PT021H.grib2 2026-05-06 08:45 597K
20260506T06Z_MSC_RDPS_WindDir_IsbL-0001_RLatLon0.09_PT021H.grib2 2026-05-06 08:45 304K
20260506T06Z_MSC_RDPS_WindDir_IsbL-0005_RLatLon0.09_PT021H.grib2 2026-05-06 08:45 363K
20260506T06Z_MSC_RDPS_WindDir_IsbL-0010_RLatLon0.09_PT021H.grib2 2026-05-06 08:45 379K
20260506T06Z_MSC_RDPS_WindDir_IsbL-0020_RLatLon0.09_PT021H.grib2 2026-05-06 08:45 417K
20260506T06Z_MSC_RDPS_WindDir_IsbL-0030_RLatLon0.09_PT021H.grib2 2026-05-06 08:45 401K
20260506T06Z_MSC_RDPS_WindDir_IsbL-0050_RLatLon0.09_PT021H.grib2 2026-05-06 08:45 426K
20260506T06Z_MSC_RDPS_WindDir_IsbL-0100_RLatLon0.09_PT021H.grib2 2026-05-06 08:45 404K
20260506T06Z_MSC_RDPS_WindDir_IsbL-0150_RLatLon0.09_PT021H.grib2 2026-05-06 08:45 403K
20260506T06Z_MSC_RDPS_WindDir_IsbL-0175_RLatLon0.09_PT021H.grib2 2026-05-06 08:45 425K
20260506T06Z_MSC_RDPS_WindDir_IsbL-0200_RLatLon0.09_PT021H.grib2 2026-05-06 08:45 450K
20260506T06Z_MSC_RDPS_WindDir_IsbL-0225_RLatLon0.09_PT021H.grib2 2026-05-06 08:45 455K
20260506T06Z_MSC_RDPS_WindDir_IsbL-0250_RLatLon0.09_PT021H.grib2 2026-05-06 08:45 454K
20260506T06Z_MSC_RDPS_WindDir_IsbL-0275_RLatLon0.09_PT021H.grib2 2026-05-06 08:45 471K
20260506T06Z_MSC_RDPS_WindDir_IsbL-0300_RLatLon0.09_PT021H.grib2 2026-05-06 08:45 469K
20260506T06Z_MSC_RDPS_WindDir_IsbL-0350_RLatLon0.09_PT021H.grib2 2026-05-06 08:45 496K
20260506T06Z_MSC_RDPS_WindDir_IsbL-0400_RLatLon0.09_PT021H.grib2 2026-05-06 08:45 510K
20260506T06Z_MSC_RDPS_WindDir_IsbL-0450_RLatLon0.09_PT021H.grib2 2026-05-06 08:45 526K
20260506T06Z_MSC_RDPS_WindDir_IsbL-0500_RLatLon0.09_PT021H.grib2 2026-05-06 08:45 542K
20260506T06Z_MSC_RDPS_WindDir_IsbL-0550_RLatLon0.09_PT021H.grib2 2026-05-06 08:45 557K
20260506T06Z_MSC_RDPS_WindDir_IsbL-0600_RLatLon0.09_PT021H.grib2 2026-05-06 08:45 584K
20260506T06Z_MSC_RDPS_WindDir_IsbL-0650_RLatLon0.09_PT021H.grib2 2026-05-06 08:45 624K
20260506T06Z_MSC_RDPS_WindDir_IsbL-0700_RLatLon0.09_PT021H.grib2 2026-05-06 08:45 671K
20260506T06Z_MSC_RDPS_WindDir_IsbL-0750_RLatLon0.09_PT021H.grib2 2026-05-06 08:45 718K
20260506T06Z_MSC_RDPS_WindDir_IsbL-0800_RLatLon0.09_PT021H.grib2 2026-05-06 08:45 782K
20260506T06Z_MSC_RDPS_WindDir_IsbL-0850_RLatLon0.09_PT021H.grib2 2026-05-06 08:45 852K
20260506T06Z_MSC_RDPS_WindDir_IsbL-0875_RLatLon0.09_PT021H.grib2 2026-05-06 08:45 876K
20260506T06Z_MSC_RDPS_WindDir_IsbL-0900_RLatLon0.09_PT021H.grib2 2026-05-06 08:45 888K
20260506T06Z_MSC_RDPS_WindDir_IsbL-0925_RLatLon0.09_PT021H.grib2 2026-05-06 08:45 897K
20260506T06Z_MSC_RDPS_WindDir_IsbL-0950_RLatLon0.09_PT021H.grib2 2026-05-06 08:45 896K
20260506T06Z_MSC_RDPS_WindDir_IsbL-0970_RLatLon0.09_PT021H.grib2 2026-05-06 08:45 900K
20260506T06Z_MSC_RDPS_WindDir_IsbL-0985_RLatLon0.09_PT021H.grib2 2026-05-06 08:45 907K
20260506T06Z_MSC_RDPS_WindDir_IsbL-1000_RLatLon0.09_PT021H.grib2 2026-05-06 08:45 921K
20260506T06Z_MSC_RDPS_WindDir_IsbL-1015_RLatLon0.09_PT021H.grib2 2026-05-06 08:45 938K
20260506T06Z_MSC_RDPS_WindGust-Max_AGL-10m_RLatLon0.09_PT021H.grib2 2026-05-06 08:45 1.0M
20260506T06Z_MSC_RDPS_WindGust-Min_AGL-10m_RLatLon0.09_PT021H.grib2 2026-05-06 08:45 964K
20260506T06Z_MSC_RDPS_WindGust_AGL-10m_RLatLon0.09_PT021H.grib2 2026-05-06 08:45 1.0M
20260506T06Z_MSC_RDPS_WindSpeed_AGL-10m_RLatLon0.09_PT021H.grib2 2026-05-06 08:45 828K
20260506T06Z_MSC_RDPS_WindSpeed_AGL-120m_RLatLon0.09_PT021H.grib2 2026-05-06 08:45 531K
20260506T06Z_MSC_RDPS_WindSpeed_AGL-40m_RLatLon0.09_PT021H.grib2 2026-05-06 08:45 535K
20260506T06Z_MSC_RDPS_WindSpeed_AGL-80m_RLatLon0.09_PT021H.grib2 2026-05-06 08:45 532K
20260506T06Z_MSC_RDPS_WindSpeed_IsbL-0001_RLatLon0.09_PT021H.grib2 2026-05-06 08:45 253K
20260506T06Z_MSC_RDPS_WindSpeed_IsbL-0005_RLatLon0.09_PT021H.grib2 2026-05-06 08:45 380K
20260506T06Z_MSC_RDPS_WindSpeed_IsbL-0010_RLatLon0.09_PT021H.grib2 2026-05-06 08:45 395K
20260506T06Z_MSC_RDPS_WindSpeed_IsbL-0020_RLatLon0.09_PT021H.grib2 2026-05-06 08:45 321K
20260506T06Z_MSC_RDPS_WindSpeed_IsbL-0030_RLatLon0.09_PT021H.grib2 2026-05-06 08:45 314K
20260506T06Z_MSC_RDPS_WindSpeed_IsbL-0050_RLatLon0.09_PT021H.grib2 2026-05-06 08:45 345K
20260506T06Z_MSC_RDPS_WindSpeed_IsbL-0100_RLatLon0.09_PT021H.grib2 2026-05-06 08:45 430K
20260506T06Z_MSC_RDPS_WindSpeed_IsbL-0150_RLatLon0.09_PT021H.grib2 2026-05-06 08:45 396K
20260506T06Z_MSC_RDPS_WindSpeed_IsbL-0175_RLatLon0.09_PT021H.grib2 2026-05-06 08:45 419K
20260506T06Z_MSC_RDPS_WindSpeed_IsbL-0200_RLatLon0.09_PT021H.grib2 2026-05-06 08:45 436K
20260506T06Z_MSC_RDPS_WindSpeed_IsbL-0225_RLatLon0.09_PT021H.grib2 2026-05-06 08:45 437K
20260506T06Z_MSC_RDPS_WindSpeed_IsbL-0250_RLatLon0.09_PT021H.grib2 2026-05-06 08:45 438K
20260506T06Z_MSC_RDPS_WindSpeed_IsbL-0275_RLatLon0.09_PT021H.grib2 2026-05-06 08:45 457K
20260506T06Z_MSC_RDPS_WindSpeed_IsbL-0300_RLatLon0.09_PT021H.grib2 2026-05-06 08:45 456K
20260506T06Z_MSC_RDPS_WindSpeed_IsbL-0350_RLatLon0.09_PT021H.grib2 2026-05-06 08:45 469K
20260506T06Z_MSC_RDPS_WindSpeed_IsbL-0400_RLatLon0.09_PT021H.grib2 2026-05-06 08:45 455K
20260506T06Z_MSC_RDPS_WindSpeed_IsbL-0450_RLatLon0.09_PT021H.grib2 2026-05-06 08:45 457K
20260506T06Z_MSC_RDPS_WindSpeed_IsbL-0500_RLatLon0.09_PT021H.grib2 2026-05-06 08:45 456K
20260506T06Z_MSC_RDPS_WindSpeed_IsbL-0550_RLatLon0.09_PT021H.grib2 2026-05-06 08:45 575K
20260506T06Z_MSC_RDPS_WindSpeed_IsbL-0600_RLatLon0.09_PT021H.grib2 2026-05-06 08:45 584K
20260506T06Z_MSC_RDPS_WindSpeed_IsbL-0650_RLatLon0.09_PT021H.grib2 2026-05-06 08:45 605K
20260506T06Z_MSC_RDPS_WindSpeed_IsbL-0700_RLatLon0.09_PT021H.grib2 2026-05-06 08:45 630K
20260506T06Z_MSC_RDPS_WindSpeed_IsbL-0750_RLatLon0.09_PT021H.grib2 2026-05-06 08:45 706K
20260506T06Z_MSC_RDPS_WindSpeed_IsbL-0800_RLatLon0.09_PT021H.grib2 2026-05-06 08:45 755K
20260506T06Z_MSC_RDPS_WindSpeed_IsbL-0850_RLatLon0.09_PT021H.grib2 2026-05-06 08:45 814K
20260506T06Z_MSC_RDPS_WindSpeed_IsbL-0875_RLatLon0.09_PT021H.grib2 2026-05-06 08:45 835K
20260506T06Z_MSC_RDPS_WindSpeed_IsbL-0900_RLatLon0.09_PT021H.grib2 2026-05-06 08:45 848K
20260506T06Z_MSC_RDPS_WindSpeed_IsbL-0925_RLatLon0.09_PT021H.grib2 2026-05-06 08:45 861K
20260506T06Z_MSC_RDPS_WindSpeed_IsbL-0950_RLatLon0.09_PT021H.grib2 2026-05-06 08:45 861K
20260506T06Z_MSC_RDPS_WindSpeed_IsbL-0970_RLatLon0.09_PT021H.grib2 2026-05-06 08:45 855K
20260506T06Z_MSC_RDPS_WindSpeed_IsbL-0985_RLatLon0.09_PT021H.grib2 2026-05-06 08:45 847K
20260506T06Z_MSC_RDPS_WindSpeed_IsbL-1000_RLatLon0.09_PT021H.grib2 2026-05-06 08:45 839K
20260506T06Z_MSC_RDPS_WindSpeed_IsbL-1015_RLatLon0.09_PT021H.grib2 2026-05-06 08:45 829K
20260506T06Z_MSC_RDPS_WindU_AGL-10m_RLatLon0.09_PT021H.grib2 2026-05-06 08:45 428K
20260506T06Z_MSC_RDPS_WindU_AGL-120m_RLatLon0.09_PT021H.grib2 2026-05-06 08:45 529K
20260506T06Z_MSC_RDPS_WindU_AGL-40m_RLatLon0.09_PT021H.grib2 2026-05-06 08:45 533K
20260506T06Z_MSC_RDPS_WindU_AGL-80m_RLatLon0.09_PT021H.grib2 2026-05-06 08:45 532K
20260506T06Z_MSC_RDPS_WindU_IsbL-0001_RLatLon0.09_PT021H.grib2 2026-05-06 08:45 242K
20260506T06Z_MSC_RDPS_WindU_IsbL-0005_RLatLon0.09_PT021H.grib2 2026-05-06 08:45 326K
20260506T06Z_MSC_RDPS_WindU_IsbL-0010_RLatLon0.09_PT021H.grib2 2026-05-06 08:45 295K
20260506T06Z_MSC_RDPS_WindU_IsbL-0020_RLatLon0.09_PT021H.grib2 2026-05-06 08:45 352K
20260506T06Z_MSC_RDPS_WindU_IsbL-0030_RLatLon0.09_PT021H.grib2 2026-05-06 08:45 347K
20260506T06Z_MSC_RDPS_WindU_IsbL-0050_RLatLon0.09_PT021H.grib2 2026-05-06 08:45 375K
20260506T06Z_MSC_RDPS_WindU_IsbL-0100_RLatLon0.09_PT021H.grib2 2026-05-06 08:45 330K
20260506T06Z_MSC_RDPS_WindU_IsbL-0150_RLatLon0.09_PT021H.grib2 2026-05-06 08:45 390K
20260506T06Z_MSC_RDPS_WindU_IsbL-0175_RLatLon0.09_PT021H.grib2 2026-05-06 08:45 412K
20260506T06Z_MSC_RDPS_WindU_IsbL-0200_RLatLon0.09_PT021H.grib2 2026-05-06 08:45 331K
20260506T06Z_MSC_RDPS_WindU_IsbL-0225_RLatLon0.09_PT021H.grib2 2026-05-06 08:45 334K
20260506T06Z_MSC_RDPS_WindU_IsbL-0250_RLatLon0.09_PT021H.grib2 2026-05-06 08:45 359K
20260506T06Z_MSC_RDPS_WindU_IsbL-0275_RLatLon0.09_PT021H.grib2 2026-05-06 08:45 373K
20260506T06Z_MSC_RDPS_WindU_IsbL-0300_RLatLon0.09_PT021H.grib2 2026-05-06 08:45 345K
20260506T06Z_MSC_RDPS_WindU_IsbL-0350_RLatLon0.09_PT021H.grib2 2026-05-06 08:45 355K
20260506T06Z_MSC_RDPS_WindU_IsbL-0400_RLatLon0.09_PT021H.grib2 2026-05-06 08:45 359K
20260506T06Z_MSC_RDPS_WindU_IsbL-0450_RLatLon0.09_PT021H.grib2 2026-05-06 08:45 463K
20260506T06Z_MSC_RDPS_WindU_IsbL-0500_RLatLon0.09_PT021H.grib2 2026-05-06 08:45 463K
20260506T06Z_MSC_RDPS_WindU_IsbL-0550_RLatLon0.09_PT021H.grib2 2026-05-06 08:45 465K
20260506T06Z_MSC_RDPS_WindU_IsbL-0600_RLatLon0.09_PT021H.grib2 2026-05-06 08:45 474K
20260506T06Z_MSC_RDPS_WindU_IsbL-0650_RLatLon0.09_PT021H.grib2 2026-05-06 08:45 492K
20260506T06Z_MSC_RDPS_WindU_IsbL-0700_RLatLon0.09_PT021H.grib2 2026-05-06 08:45 514K
20260506T06Z_MSC_RDPS_WindU_IsbL-0750_RLatLon0.09_PT021H.grib2 2026-05-06 08:45 541K
20260506T06Z_MSC_RDPS_WindU_IsbL-0800_RLatLon0.09_PT021H.grib2 2026-05-06 08:45 582K
20260506T06Z_MSC_RDPS_WindU_IsbL-0850_RLatLon0.09_PT021H.grib2 2026-05-06 08:45 622K
20260506T06Z_MSC_RDPS_WindU_IsbL-0875_RLatLon0.09_PT021H.grib2 2026-05-06 08:45 639K
20260506T06Z_MSC_RDPS_WindU_IsbL-0900_RLatLon0.09_PT021H.grib2 2026-05-06 08:45 649K
20260506T06Z_MSC_RDPS_WindU_IsbL-0925_RLatLon0.09_PT021H.grib2 2026-05-06 08:45 658K
20260506T06Z_MSC_RDPS_WindU_IsbL-0950_RLatLon0.09_PT021H.grib2 2026-05-06 08:45 655K
20260506T06Z_MSC_RDPS_WindU_IsbL-0970_RLatLon0.09_PT021H.grib2 2026-05-06 08:45 650K
20260506T06Z_MSC_RDPS_WindU_IsbL-0985_RLatLon0.09_PT021H.grib2 2026-05-06 08:45 645K
20260506T06Z_MSC_RDPS_WindU_IsbL-1000_RLatLon0.09_PT021H.grib2 2026-05-06 08:45 778K
20260506T06Z_MSC_RDPS_WindU_IsbL-1015_RLatLon0.09_PT021H.grib2 2026-05-06 08:45 771K
20260506T06Z_MSC_RDPS_WindV_AGL-10m_RLatLon0.09_PT021H.grib2 2026-05-06 08:45 425K
20260506T06Z_MSC_RDPS_WindV_AGL-120m_RLatLon0.09_PT021H.grib2 2026-05-06 08:45 413K
20260506T06Z_MSC_RDPS_WindV_AGL-40m_RLatLon0.09_PT021H.grib2 2026-05-06 08:45 530K
20260506T06Z_MSC_RDPS_WindV_AGL-80m_RLatLon0.09_PT021H.grib2 2026-05-06 08:45 529K
20260506T06Z_MSC_RDPS_WindV_IsbL-0001_RLatLon0.09_PT021H.grib2 2026-05-06 08:45 293K
20260506T06Z_MSC_RDPS_WindV_IsbL-0005_RLatLon0.09_PT021H.grib2 2026-05-06 08:45 285K
20260506T06Z_MSC_RDPS_WindV_IsbL-0010_RLatLon0.09_PT021H.grib2 2026-05-06 08:45 295K
20260506T06Z_MSC_RDPS_WindV_IsbL-0020_RLatLon0.09_PT021H.grib2 2026-05-06 08:45 314K
20260506T06Z_MSC_RDPS_WindV_IsbL-0030_RLatLon0.09_PT021H.grib2 2026-05-06 08:45 310K
20260506T06Z_MSC_RDPS_WindV_IsbL-0050_RLatLon0.09_PT021H.grib2 2026-05-06 08:45 338K
20260506T06Z_MSC_RDPS_WindV_IsbL-0100_RLatLon0.09_PT021H.grib2 2026-05-06 08:45 419K
20260506T06Z_MSC_RDPS_WindV_IsbL-0150_RLatLon0.09_PT021H.grib2 2026-05-06 08:45 387K
20260506T06Z_MSC_RDPS_WindV_IsbL-0175_RLatLon0.09_PT021H.grib2 2026-05-06 08:45 410K
20260506T06Z_MSC_RDPS_WindV_IsbL-0200_RLatLon0.09_PT021H.grib2 2026-05-06 08:45 428K
20260506T06Z_MSC_RDPS_WindV_IsbL-0225_RLatLon0.09_PT021H.grib2 2026-05-06 08:45 332K
20260506T06Z_MSC_RDPS_WindV_IsbL-0250_RLatLon0.09_PT021H.grib2 2026-05-06 08:45 331K
20260506T06Z_MSC_RDPS_WindV_IsbL-0275_RLatLon0.09_PT021H.grib2 2026-05-06 08:45 345K
20260506T06Z_MSC_RDPS_WindV_IsbL-0300_RLatLon0.09_PT021H.grib2 2026-05-06 08:45 343K
20260506T06Z_MSC_RDPS_WindV_IsbL-0350_RLatLon0.09_PT021H.grib2 2026-05-06 08:45 354K
20260506T06Z_MSC_RDPS_WindV_IsbL-0400_RLatLon0.09_PT021H.grib2 2026-05-06 08:45 359K
20260506T06Z_MSC_RDPS_WindV_IsbL-0450_RLatLon0.09_PT021H.grib2 2026-05-06 08:45 462K
20260506T06Z_MSC_RDPS_WindV_IsbL-0500_RLatLon0.09_PT021H.grib2 2026-05-06 08:45 461K
20260506T06Z_MSC_RDPS_WindV_IsbL-0550_RLatLon0.09_PT021H.grib2 2026-05-06 08:45 463K
20260506T06Z_MSC_RDPS_WindV_IsbL-0600_RLatLon0.09_PT021H.grib2 2026-05-06 08:45 470K
20260506T06Z_MSC_RDPS_WindV_IsbL-0650_RLatLon0.09_PT021H.grib2 2026-05-06 08:45 489K
20260506T06Z_MSC_RDPS_WindV_IsbL-0700_RLatLon0.09_PT021H.grib2 2026-05-06 08:45 511K
20260506T06Z_MSC_RDPS_WindV_IsbL-0750_RLatLon0.09_PT021H.grib2 2026-05-06 08:45 537K
20260506T06Z_MSC_RDPS_WindV_IsbL-0800_RLatLon0.09_PT021H.grib2 2026-05-06 08:45 577K
20260506T06Z_MSC_RDPS_WindV_IsbL-0850_RLatLon0.09_PT021H.grib2 2026-05-06 08:45 626K
20260506T06Z_MSC_RDPS_WindV_IsbL-0875_RLatLon0.09_PT021H.grib2 2026-05-06 08:45 634K
20260506T06Z_MSC_RDPS_WindV_IsbL-0900_RLatLon0.09_PT021H.grib2 2026-05-06 08:45 644K
20260506T06Z_MSC_RDPS_WindV_IsbL-0925_RLatLon0.09_PT021H.grib2 2026-05-06 08:45 654K
20260506T06Z_MSC_RDPS_WindV_IsbL-0950_RLatLon0.09_PT021H.grib2 2026-05-06 08:45 652K
20260506T06Z_MSC_RDPS_WindV_IsbL-0970_RLatLon0.09_PT021H.grib2 2026-05-06 08:45 648K
20260506T06Z_MSC_RDPS_WindV_IsbL-0985_RLatLon0.09_PT021H.grib2 2026-05-06 08:45 642K
20260506T06Z_MSC_RDPS_WindV_IsbL-1000_RLatLon0.09_PT021H.grib2 2026-05-06 08:45 774K
20260506T06Z_MSC_RDPS_WindV_IsbL-1015_RLatLon0.09_PT021H.grib2 2026-05-06 08:45 766K